Strasbourg, France

5:41 PM CEST on May 28, 2017 (GMT +0200)
Entzheim

Weather History for LFST - October, 2013

Change the Weather History Date:

Monday, October 14, 2013

  Actual Average Record
Temperature  
Mean Temperature 49 °F -  
Max Temperature 59 °F 52 °F 73 °F (2014)
Min Temperature 39 °F 39 °F 37 °F (2010)
Degree Days  
Heating Degree Days 16    
Moisture  
Dew Point 50 °F    
Average Humidity 93    
Maximum Humidity 100    
Minimum Humidity 81    
Precipitation  
Precipitation 0.04 in 0.06 in - ()
Sea Level Pressure  
Sea Level Pressure 30.03 in    
Wind  
Wind Speed 3 mph ()    
Max Wind Speed 8 mph    
Max Gust Speed -    
Visibility 5.5 miles    
Events Rain    
Averages and records for this station are not official NWS values.
T = Trace of Precipitation, MM = Missing Value Source: Averaged Metar Reports

Daily Weather History Graph

Daily Weather History Graph

Search for Another Location

Airport or City:

Trip Planner

Search our weather history database for the weather conditions in past years. The results will help you decide how hot, cold, wet, or windy it might be!

Date:

Astronomy

Oct. 14, 2013 Rise Set
Actual Time 7:47 AM CEST 6:42 PM CEST
Civil Twilight 7:16 AM CEST 7:13 PM CEST
Nautical Twilight 6:40 AM CEST 7:49 PM CEST
Astronomical Twilight 6:03 AM CEST 8:26 PM CEST
Moon 4:20 PM CEST (10/14) 2:24 AM CEST (10/14)
Length of Visible Light 11h 57m
Length of Day
10h 54m
Waxing Gibbous, 77% of the Moon is Illuminated
Oct 14
Waxing Gibbous
Oct 19
Full
Oct 27
Last Quarter
Nov 3
New
Nov 10
First Quarter

Hourly Weather History & Observations

Time (CEST) Temp. Windchill Dew Point Humidity Pressure Visibility Wind Dir Wind Speed Gust Speed Precip Events Conditions
12:00 AM 44.6 °F - 42.8 °F 93% 30.06 in 6.2 mi SW 2.3 mph - N/A   Overcast
12:30 AM 44.6 °F - 44.6 °F 100% 30.06 in 3.1 mi Calm Calm - N/A Rain Rain
1:00 AM 44.6 °F 43.1 °F 42.8 °F 93% 30.06 in 6.2 mi WSW 3.5 mph - N/A Rain Light Rain
1:30 AM 44.6 °F - 44.6 °F 100% 30.06 in 6.2 mi Calm Calm - N/A   Overcast
2:00 AM 46 °F - 45 °F 94% 30.09 in 5 mi ESE 2.3 mph - -   Clear
2:00 AM 46.4 °F - 44.6 °F 93% 30.06 in 6.2 mi Variable 2.3 mph - N/A   Overcast
2:30 AM 46.4 °F - 44.6 °F 93% 30.06 in 6.2 mi Variable 2.3 mph - N/A   Overcast
3:00 AM 46.4 °F 45.2 °F 44.6 °F 93% 30.06 in 2.8 mi WSW 3.5 mph - N/A Rain Light Rain
3:30 AM 46.4 °F 45.2 °F 46.4 °F 100% 30.04 in 4.3 mi WSW 3.5 mph - N/A Rain Light Rain
4:00 AM 46.4 °F - 44.6 °F 93% 30.04 in 6.2 mi SW 2.3 mph - N/A   Overcast
4:30 AM 46.4 °F 45.2 °F 46.4 °F 100% 30.04 in - West 3.5 mph - N/A Rain Light Rain
5:00 AM 46.4 °F 45.2 °F 46.4 °F 100% 30.04 in 5.6 mi Variable 3.5 mph - N/A   Mostly Cloudy
5:30 AM 46.4 °F - 46.4 °F 100% 30.04 in - Calm Calm - N/A Rain Light Rain
6:00 AM 48.2 °F - 46.4 °F 93% 30.04 in 3.1 mi ESE 3.5 mph - N/A Rain Light Rain
6:30 AM 48.2 °F - 46.4 °F 93% 30.04 in 3.7 mi Calm Calm - N/A   Overcast
7:00 AM 46.4 °F - 46.4 °F 100% 30.06 in - Variable 2.3 mph - N/A   Mostly Cloudy
7:30 AM 48.2 °F - 46.4 °F 93% 30.06 in 3.1 mi Calm Calm - N/A   Overcast
8:00 AM 47 °F - 46 °F 96% 30.08 in 1 mi East 2.3 mph - -   Mist
8:00 AM 46.4 °F - 46.4 °F 100% 30.06 in 2.2 mi Variable 2.3 mph - N/A   Mostly Cloudy
8:30 AM 48.2 °F - 48.2 °F 100% 30.06 in 2.8 mi North 1.2 mph - N/A   Mostly Cloudy
9:00 AM 48.2 °F - 48.2 °F 100% 30.06 in - Calm Calm - N/A   Overcast
9:30 AM 48.2 °F - 48.2 °F 100% 30.06 in - WSW 2.3 mph - N/A Rain Light Rain
10:00 AM 50.0 °F - 48.2 °F 94% 30.06 in - Variable 1.2 mph - N/A Rain Light Rain
10:30 AM 50.0 °F - 48.2 °F 94% 30.06 in - Calm Calm - N/A Rain Rain
11:00 AM 51.8 °F - 50.0 °F 94% 30.06 in 3.1 mi Variable 2.3 mph - N/A Rain Light Rain
11:30 AM 51.8 °F - 51.8 °F 100% 30.06 in 3.7 mi Variable 3.5 mph - N/A   Overcast
12:00 PM 53.6 °F - 51.8 °F 94% 30.06 in 5.0 mi Variable 3.5 mph - N/A Rain Light Rain
12:30 PM 55.4 °F - 53.6 °F 94% 30.06 in 6.2 mi SSW 5.8 mph - N/A   Mostly Cloudy
1:00 PM 55.4 °F - 53.6 °F 94% 30.06 in 6.2 mi South 4.6 mph - N/A   Overcast
1:30 PM 55.4 °F - 53.6 °F 94% 30.04 in 6.2 mi SW 5.8 mph - N/A   Overcast
2:00 PM 57 °F - 54 °F 87% 30.05 in 12 mi South 3.5 mph - -   Clear
2:00 PM 57.2 °F - 53.6 °F 88% 30.04 in 6.2 mi South 3.5 mph - N/A   Overcast
2:30 PM 57.2 °F - 55.4 °F 94% 30.04 in 6.2 mi South 5.8 mph - N/A   Mostly Cloudy
3:00 PM 57.2 °F - 53.6 °F 88% 30.01 in 6.2 mi SSW 5.8 mph - N/A   Mostly Cloudy
3:30 PM 57.2 °F - 53.6 °F 88% 30.01 in 6.2 mi South 5.8 mph - N/A   Overcast
4:00 PM 59.0 °F - 55.4 °F 88% 30.01 in 6.2 mi South 3.5 mph - N/A   Mostly Cloudy
4:30 PM 59.0 °F - 53.6 °F 82% 30.01 in 6.2 mi South 6.9 mph - N/A   Mostly Cloudy
5:00 PM 59.0 °F - 53.6 °F 82% 30.01 in 6.2 mi South 5.8 mph - N/A   Mostly Cloudy
5:30 PM 59.0 °F - 53.6 °F 82% 29.98 in 6.2 mi South 4.6 mph - N/A   Mostly Cloudy
6:00 PM 59.0 °F - 53.6 °F 82% 29.98 in 6.2 mi SSE 3.5 mph - N/A   Unknown
6:30 PM 57.2 °F - 53.6 °F 88% 29.98 in 6.2 mi SSE 2.3 mph - N/A   Unknown
7:00 PM 57.2 °F - 53.6 °F 88% 29.98 in 6.2 mi South 4.6 mph - N/A   Mostly Cloudy
7:30 PM 57.2 °F - 53.6 °F 88% 29.98 in 6.2 mi South 6.9 mph - N/A   Mostly Cloudy
8:00 PM 57 °F - 53 °F 81% 30.00 in 31 mi South 6.9 mph - -   Clear
8:00 PM 57.2 °F - 53.6 °F 88% 29.98 in 6.2 mi South 6.9 mph - N/A   Overcast
8:30 PM 55.4 °F - 51.8 °F 88% 29.98 in 6.2 mi South 8.1 mph - N/A   Overcast
9:00 PM 55.4 °F - 51.8 °F 88% 29.98 in 6.2 mi South 6.9 mph - N/A   Unknown
9:30 PM 55.4 °F - 51.8 °F 88% 29.98 in 6.2 mi South 5.8 mph - N/A   Unknown
10:00 PM 55.4 °F - 51.8 °F 88% 29.98 in 6.2 mi South 8.1 mph - N/A   Overcast
10:30 PM 53.6 °F - 51.8 °F 94% 29.98 in 6.2 mi South 8.1 mph - N/A   Overcast
11:00 PM 53.6 °F - 51.8 °F 94% 29.98 in 6.2 mi South 8.1 mph - N/A   Unknown
11:30 PM 53.6 °F - 51.8 °F 94% 29.95 in 6.2 mi South 8.1 mph - N/A   Overcast